CSUNSAT 1 (42715 NORAD) Tracking and Keplerian Element Data

This shows tracking and keplerian element data for the satellite.

Feedback or suggestion? Click here.




ElementValue
Catalog42715
NameCSUNSAT 1
Epoch Orbit6703
Epoch Day203.18161273
Epoch Year2018
RAAN180.2028
Inclination51.6337
Eccentricity0.0003084
Argument of Perigee331.4991
Mean Anonmoly28.5837
Mean Motion15.69847321
Decay Rate0.000218
L11 42715U 98067LW 18203.18161273 .00021800 00000-0 18299-3 0 9995
L22 42715 51.6337 180.2028 0003084 331.4991 28.5837 15.69847321 67037

Live tracking and technical data element details for CSUNSAT 1 (NORAD 42715). CSUNSAT 1 can be tracked NOW for your location showing map with azimuth and elevation plus other details from your city location.

Track the satellite on the map from your city or location and see movement details for azimuth, elevation, latitude, longitude, range, height, and movement on the map or in text.







IsCatalogInMostPopularTable: catalog: 42715, numindb: 100
Update: records affected: 1



GetName: 42715 CSUNSAT 1

Hit Count: updated at: Mon, 23 Jul 2018 07:55:19 GMT